Weather History for San Diego, CA

Change the Weather History Date:

Tuesday, May 7, 2013

  Actual Average Record
Temperature  
Mean Temperature 65 °F 64 °F  
Max Temperature 68 °F 68 °F 85 °F (1941)
Min Temperature 61 °F 59 °F 49 °F (1933)
Degree Days  
Heating Degree Days 0 2  
Month to date heating degree days 6 16  
Since 1 July heating degree days 1080 1165  
Cooling Degree Days 0 1  
Month to date cooling degree days 12 7  
Year to date cooling degree days 19 31  
Growing Degree Days 14 (Base 50)    
Moisture  
Dew Point 53 °F    
Average Humidity 68    
Maximum Humidity 84    
Minimum Humidity 52    
Precipitation  
Precipitation 0.04 in 0.01 in 0.32 in (1971)
Month to date precipitation 0.26 0.05  
Year to date precipitation 3.33 6.89  
Since 1 July precipitation 6.50 10.20  
Snow  
Snow 0.00 in - - ()
Month to date snowfall 0.0  
Year to date snowfall 0.0  
Since 1 July snowfall 0.0  
Snow Depth 0.00 in    
Sea Level Pressure  
Sea Level Pressure 30.05 in    
Wind  
Wind Speed 8 mph (SW)    
Max Wind Speed 15 mph    
Max Gust Speed 18 mph    
Visibility 10 miles    
Events Rain    
T = Trace of Precipitation, MM = Missing Value Source: NWS Daily Summary

Daily Weather History Graph

Daily Weather History Graph

Search for Another Location

Airport:

Trip Planner

Search our weather history database for the weather conditions in past years. The results will help you decide how hot, cold, wet, or windy it might be!

Date:

Astronomy

May. 07, 2013 Rise Set
Actual Time 5:55 AM PDT 7:35 PM PDT
Civil Twilight 5:29 AM PDT 8:01 PM PDT
Nautical Twilight 4:57 AM PDT 8:33 PM PDT
Astronomical Twilight 4:23 AM PDT 9:07 PM PDT
Moon 4:25 AM PDT (5/7) 5:44 PM PDT (5/7)
Length of Visible Light 14h 32m
Length of Day
13h 39m
Waning Crescent, 5% of the Moon is Illuminated
May 7
Waning Crescent
May 9
New
May 17
First Quarter
May 24
Full
May 31
Last Quarter

Hourly Weather History & Observations

Time (PDT) Temp. Dew Point Humidity Pressure Visibility Wind Dir Wind Speed Gust Speed Precip Events Conditions
12:10 AM 62.6 °F 57.2 °F 82% 30.04 in 10.0 mi South 8.1 mph - N/A   Overcast
12:35 AM 62.6 °F 57.2 °F 82% 30.04 in 10.0 mi South 6.9 mph - N/A   Mostly Cloudy
12:51 AM 63.0 °F 57.9 °F 84% 30.03 in 10.0 mi SSW 8.1 mph - N/A   Mostly Cloudy
1:07 AM 62.6 °F 57.2 °F 82% 30.03 in 10.0 mi SSW 9.2 mph - N/A   Overcast
1:51 AM 61.0 °F 55.0 °F 81% 30.03 in 7.0 mi WSW 6.9 mph - 0.01 in Rain Rain
2:01 AM 60.8 °F 55.4 °F 82% 30.02 in 10.0 mi West 5.8 mph - 0.03 in Rain Light Rain
2:51 AM 62.1 °F 55.9 °F 80% 30.02 in 10.0 mi WSW 8.1 mph - 0.03 in   Mostly Cloudy
3:51 AM 62.1 °F 55.0 °F 78% 30.01 in 10.0 mi Calm Calm - N/A   Mostly Cloudy
4:51 AM 62.1 °F 55.0 °F 78% 30.02 in 10.0 mi SW 5.8 mph - N/A   Mostly Cloudy
5:25 AM 62.6 °F 55.4 °F 77% 30.02 in 10.0 mi SSW 4.6 mph - N/A   Overcast
5:51 AM 62.1 °F 55.9 °F 80% 30.03 in 10.0 mi SSW 4.6 mph - N/A   Mostly Cloudy
6:00 AM 62.6 °F 55.4 °F 77% 30.03 in 10.0 mi SW 3.5 mph - N/A   Mostly Cloudy
6:51 AM 63.0 °F 55.0 °F 75% 30.04 in 10.0 mi SW 4.6 mph - N/A   Mostly Cloudy
7:51 AM 62.1 °F 52.0 °F 70% 30.04 in 10.0 mi WNW 8.1 mph - N/A   Overcast
8:51 AM 63.0 °F 50.0 °F 63% 30.06 in 10.0 mi Variable 4.6 mph - N/A   Overcast
9:51 AM 64.0 °F 53.1 °F 67% 30.06 in 10.0 mi SW 6.9 mph - N/A   Mostly Cloudy
10:51 AM 64.9 °F 53.1 °F 65% 30.07 in 10.0 mi SW 9.2 mph - N/A   Mostly Cloudy
11:51 AM 64.9 °F 52.0 °F 63% 30.07 in 10.0 mi South 10.4 mph - N/A   Mostly Cloudy
12:51 PM 66.0 °F 51.1 °F 59% 30.07 in 10.0 mi South 6.9 mph - N/A   Mostly Cloudy
1:51 PM 66.9 °F 48.9 °F 52% 30.07 in 10.0 mi SW 11.5 mph - N/A   Mostly Cloudy
2:51 PM 66.9 °F 51.1 °F 57% 30.06 in 10.0 mi SSW 10.4 mph - N/A   Scattered Clouds
3:51 PM 66.0 °F 48.0 °F 52% 30.05 in 10.0 mi WSW 10.4 mph - N/A   Scattered Clouds
4:51 PM 66.0 °F 50.0 °F 56% 30.05 in 10.0 mi WSW 11.5 mph - N/A   Scattered Clouds
5:51 PM 66.0 °F 48.9 °F 54% 30.04 in 10.0 mi West 6.9 mph - N/A   Scattered Clouds
6:51 PM 64.0 °F 52.0 °F 65% 30.04 in 10.0 mi SW 8.1 mph - N/A   Scattered Clouds
7:51 PM 63.0 °F 53.1 °F 70% 30.06 in 10.0 mi WSW 6.9 mph - N/A   Scattered Clouds
8:51 PM 63.0 °F 53.1 °F 70% 30.07 in 10.0 mi SW 3.5 mph - N/A   Scattered Clouds
9:51 PM 63.0 °F 53.1 °F 70% 30.09 in 10.0 mi WSW 4.6 mph - N/A   Scattered Clouds
10:51 PM 63.0 °F 53.1 °F 70% 30.09 in 10.0 mi SW 3.5 mph - N/A   Scattered Clouds
11:23 PM 62.6 °F 53.6 °F 72% 30.10 in 10.0 mi WSW 3.5 mph - N/A   Mostly Cloudy
11:51 PM 62.1 °F 53.1 °F 72% 30.10 in 10.0 mi SW 4.6 mph - N/A   Mostly Cloudy